Regional Weather Roundup
Issued by NWS

Home | Current Version | Previous Version | Text Only | Print | Product List | Glossary Off
Versions: 1 2 3 4 5 6 7 8 9 10 11 12 13 14 15 16 17 18 19 20 21 22 23 24 25 26 27 28 29 30 31 32 33 34 35 36 37 38 39 40 41 42 43 44 45 46 47 48 49 50

000
ASUS43 KOAX 031002
RWRNE

WEATHER ROUNDUP FOR NEBRASKA
NATIONAL WEATHER SERVICE OMAHA NE
500 AM CDT MON AUG 03 2015

NOTES: SATELLITE DATA IS BEING USED TO AUGMENT CLOUD COVER ABOVE
       12000 FEET.
       "FAIR" INDICATES FEW OR NO CLOUDS BELOW 12,000 FEET WITH NO
       SIGNIFICANT WEATHER AND/OR OBSTRUCTIONS TO VISIBILITY.

  * THESE STATIONS DO NOT REPORT WEATHER SUCH AS RAIN...SNOW OR FOG.

NEZ001>004-019>022-054>056-031100-
NEBRASKA PANHANDLE

CITY           SKY/WX    TMP DP  RH WIND       PRES   REMARKS
SCOTTSBLUFF    MOCLDY    63  56  78 CALM      30.00R
ALLIANCE       MOCLDY    59  56  89 E3        30.00S
CHADRON        PTCLDY    60  56  86 NE5       29.99R
KIMBALL        CLOUDY    63  51  65 SW3       30.03F
SIDNEY         MOCLDY    63  56  78 SW6       30.02F
$$

NEZ057>060-069>072-079>082-031100-
SOUTHWEST NEBRASKA

CITY           SKY/WX    TMP DP  RH WIND       PRES   REMARKS
NORTH PLATTE   PTCLDY    58  55  90 CALM      29.99S
IMPERIAL       PTCLDY    63  54  72 NE9       29.98S
LEXINGTON      PTCLDY    64  61  91 E7        29.97S
MCCOOK         PTCLDY    61  58  90 N5        29.97R
$$

NEZ005>010-023>029-035>040-094-031100-
NORTH CENTRAL NEBRASKA

CITY           SKY/WX    TMP DP  RH WIND       PRES   REMARKS
AINSWORTH      CLEAR     63  60  90 E5        30.00S
BROKEN BOW     CLEAR     65  60  84 NE3       29.99F
ORD            PTCLDY    62  59  90 N3        29.97F
$$

NEZ041-046>049-061>064-073>077-083>087-031100-
SOUTH CENTRAL NEBRASKA

CITY           SKY/WX    TMP DP  RH WIND       PRES   REMARKS
GRAND ISLAND   PTCLDY    65  63  93 N5        29.97R
AURORA         PTCLDY    67  67  98 NE7       29.95R
HASTINGS       CLEAR     67  65  93 NE6       29.95S
HEBRON         CLEAR     69  64  85 CALM      29.91R
HOLDREGE       PTCLDY    60  58  92 NE6       29.97R
KEARNEY *      PTCLDY    64  61  88 NE6       29.96S
YORK           PTCLDY    68  66  94 NE8       29.95R
$$

NEZ011>018-030>034-042>045-031100-
NORTHEAST NEBRASKA

CITY           SKY/WX    TMP DP  RH WIND       PRES   REMARKS
NORFOLK        CLEAR     65  61  87 E3        29.97R
ALBION         CLEAR     64  59  83 E7        29.98R
BLAIR          CLEAR     66  61  82 NE5       29.95R
COLUMBUS *     CLEAR     64  57  77 CALM      29.97R
FREMONT        CLEAR     68  62  79 CALM      29.96R
TEKAMAH        PTCLDY    65  62  90 CALM      29.95R
WAYNE          MOCLDY    60  59  96 CALM      29.98R
$$

NEZ050>053-065>068-078-088>093-031100-
SOUTHEAST NEBRASKA

CITY           SKY/WX    TMP DP  RH WIND       PRES   REMARKS
LINCOLN        CLEAR     71  68  90 NE10      29.92R
OMAHA EPPLEY   PTCLDY    68  63  84 N6        29.94R
BEATRICE       PTCLDY    72  71  95 NE8       29.90R
FALLS CITY     CLEAR     69  65  86 SE5       29.88S
NEBRASKA CITY  CLEAR     69  66  91 E6        29.91R
$$

NEZ044-045-051>053-067-031100-
OMAHA AREA

CITY           SKY/WX    TMP DP  RH WIND       PRES   REMARKS
OMAHA EPPLEY   PTCLDY    68  63  84 N6        29.94R
BLAIR          CLEAR     66  61  82 NE5       29.95R
FREMONT        CLEAR     68  62  79 CALM      29.96R
WAHOO          FAIR      66  64  93 NE3       29.95R
$$



USA.gov is the U.S. government's official web portal to all federal, state and local government web resources and services.